GW5036 Weather Reports


Display with metric or nautical units.
time (UTC)temp
F
wind
direction
speed
MPH
gust
MPH
rain 1hr
in
rain 24hr
in
rain mn
in
humidity
%
barometer
mb
20260505230633 55 313 11.0 16.0 0.00 0.00 0.00 49 998.0
20260505225911 55 308 12.0 16.0 0.00 0.00 0.00 46 998.0
20260505225411 55 311 11.0 16.0 0.00 0.00 0.00 41 998.2
20260505225125 56 290 10.0 16.0 0.00 0.00 0.00 47 998.1
20260505224355 55 304 9.0 15.0 0.00 0.00 0.00 44 998.1
20260505223850 55 309 9.0 15.0 0.00 0.00 0.00 45 998.2
20260505223343 55 312 10.0 14.0 0.00 0.00 0.00 42 998.1
20260505222839 56 295 12.0 16.0 0.00 0.00 0.00 41 998.1
20260505222555 56 290 11.0 17.0 0.00 0.00 0.00 40 998.0
20260505221826 56 319 10.0 17.0 0.00 0.00 0.00 42 998.0
20260505221548 56 298 9.0 15.0 0.00 0.00 0.00 44 998.0
20260505220814 55 300 10.0 15.0 0.00 0.00 0.00 41 998.0
20260505220535 55 280 11.0 17.0 0.00 0.00 0.00 42 998.1
20260505215802 55 305 10.0 17.0 0.00 0.00 0.00 40 998.0
20260505215255 55 300 8.0 16.0 0.00 0.00 0.00 42 998.2
20260505214750 55 296 9.0 14.0 0.00 0.00 0.00 45 998.1
20260505214245 55 309 11.0 16.0 0.00 0.00 0.00 42 998.0
20260505213738 55 300 10.0 16.0 0.00 0.00 0.00 40 998.0
20260505213231 55 311 10.0 16.0 0.00 0.00 0.00 40 998.0
20260505212726 55 281 11.0 17.0 0.00 0.00 0.00 46 998.2
20260505212441 56 293 10.0 17.0 0.00 0.00 0.00 43 998.2
20260505211714 55 326 9.0 17.0 0.00 0.00 0.00 45 998.0
20260505211209 55 300 10.0 17.0 0.00 0.00 0.00 44 998.0
20260505210702 55 326 9.0 17.0 0.00 0.00 0.00 46 998.0
20260505210156 55 295 11.0 19.0 0.00 0.00 0.00 45 998.1
20260505205650 55 303 11.0 19.0 0.00 0.00 0.00 40 998.2
20260505205144 55 301 10.0 16.0 0.00 0.00 0.00 42 998.1
20260505204638 55 312 11.0 18.0 0.00 0.00 0.00 41 998.2
20260505204133 55 306 12.0 19.0 0.00 0.00 0.00 42 998.0
20260505203626 55 302 11.0 19.0 0.00 0.00 0.00 42 998.2
20260505203120 55 311 11.0 19.0 0.00 0.00 0.00 41 998.3
20260505202614 55 307 13.0 20.0 0.00 0.00 0.00 43 998.4
20260505202111 55 294 13.0 21.0 0.00 0.00 0.00 38 998.6
20260505201602 55 300 13.0 21.0 0.00 0.00 0.00 38 998.5
20260505201056 55 293 13.0 18.0 0.00 0.00 0.00 42 998.4
20260505200550 55 297 13.0 20.0 0.00 0.00 0.00 37 998.3
20260505200044 55 308 13.0 20.0 0.00 0.00 0.00 41 998.5
20260505195538 55 299 13.0 19.0 0.00 0.00 0.00 37 998.4
20260505195032 55 291 13.0 20.0 0.00 0.00 0.00 38 998.5
20260505194020 55 300 11.0 22.0 0.00 0.00 0.00 43 998.7
20260505193514 55 307 11.0 22.0 0.00 0.00 0.00 43 998.5
20260505193009 54 311 13.0 21.0 0.00 0.00 0.00 39 998.7
20260505192502 55 290 12.0 19.0 0.00 0.00 0.00 43 998.7
20260505192218 54 291 12.0 19.0 0.00 0.00 0.00 39 998.8
20260505191502 55 302 13.0 21.0 0.00 0.00 0.00 39 998.9
20260505191005 55 290 11.0 21.0 0.00 0.00 0.00 37 999.0
20260505190503 54 300 10.0 16.0 0.00 0.00 0.00 38 998.9
20260505190002 54 301 12.0 16.0 0.00 0.00 0.00 36 998.9
20260505185723 54 299 13.0 18.0 0.00 0.00 0.00 38 998.8
20260505185002 54 300 12.0 18.0 0.00 0.00 0.00 37 998.8
20260505184502 54 307 11.0 17.0 0.00 0.00 0.00 39 998.9
20260505184002 54 309 12.0 18.0 0.00 0.00 0.00 40 998.7
20260505183219 53 263 14.0 20.0 0.00 0.00 0.00 39 998.8
20260505182501 53 293 13.0 20.0 0.00 0.00 0.00 40 998.7
20260505182001 54 284 12.0 17.0 0.00 0.00 0.00 39 998.7
20260505181503 54 283 11.0 18.0 0.00 0.00 0.00 39 998.8
20260505181001 54 304 11.0 18.0 0.00 0.00 0.00 39 998.8
20260505180458 53 300 12.0 20.0 0.00 0.00 0.00 42 998.6
20260505180219 53 304 14.0 20.0 0.00 0.00 0.00 41 998.5
20260505175723 53 291 14.0 23.0 0.00 0.00 0.00 39 998.3
20260505174958 53 304 12.0 23.0 0.00 0.00 0.00 39 998.4
20260505174458 53 299 12.0 20.0 0.00 0.00 0.00 42 998.3
20260505173959 53 319 11.0 20.0 0.00 0.00 0.00 38 998.2
20260505173457 53 305 11.0 18.0 0.00 0.00 0.00 39 998.2
20260505172959 53 286 13.0 19.0 0.00 0.00 0.00 40 998.3
20260505172721 53 309 12.0 20.0 0.00 0.00 0.00 42 998.3
20260505171957 53 297 12.0 20.0 0.00 0.00 0.00 46 998.2
20260505171458 53 305 12.0 18.0 0.00 0.00 0.00 44 998.3
20260505170958 53 303 11.0 21.0 0.00 0.00 0.00 42 998.5
20260505170714 53 288 10.0 21.0 0.00 0.00 0.00 39 998.5
20260505170217 53 314 11.0 21.0 0.00 0.00 0.00 39 998.5
20260505165454 53 291 12.0 21.0 0.00 0.00 0.00 42 998.6
20260505164453 52 295 10.0 16.0 0.00 0.00 0.00 41 998.3
20260505163953 52 302 11.0 20.0 0.00 0.00 0.00 44 998.2
20260505163455 52 334 11.0 20.0 0.00 0.00 0.00 45 998.0
20260505162955 52 268 11.0 19.0 0.00 0.00 0.00 46 997.9
20260505162453 52 307 13.0 19.0 0.00 0.00 0.00 48 998.1
20260505161950 52 274 12.0 18.0 0.00 0.00 0.00 43 998.2
20260505161450 52 297 13.0 21.0 0.00 0.00 0.00 42 998.2
20260505160950 52 299 12.0 21.0 0.00 0.00 0.00 43 998.3
20260505160449 52 304 10.0 21.0 0.00 0.00 0.00 46 998.2
20260505160214 51 302 9.0 15.0 0.00 0.00 0.00 49 998.3
20260505152946 51 305 9.0 16.0 0.00 0.00 0.00 44 998.1
20260505152446 51 284 10.0 16.0 0.00 0.00 0.00 45 998.2
20260505151944 51 316 8.0 14.0 0.00 0.00 0.00 50 998.2
20260505151443 51 297 9.0 14.0 0.00 0.00 0.00 48 998.1
20260505150944 50 289 10.0 15.0 0.00 0.00 0.00 48 998.3
20260505150444 50 297 10.0 15.0 0.00 0.00 0.00 48 998.4
20260505140413 49 302 7.0 11.0 0.00 0.00 0.00 53 998.5
20260505130127 48 303 5.0 8.0 0.00 0.00 0.00 55 998.5
20260505124844 48 304 4.0 5.0 0.00 0.00 0.00 57 998.1
20260505124339 48 300 4.0 5.0 0.00 0.00 0.00 57 998.2
20260505123834 48 300 3.0 5.0 0.00 0.00 0.00 57 998.3
20260505123326 48 307 3.0 5.0 0.00 0.00 0.00 56 998.2
20260505122820 48 316 4.0 7.0 0.00 0.00 0.00 57 998.4
20260505122315 48 303 5.0 7.0 0.00 0.00 0.00 59 998.4
20260505121815 48 301 5.0 7.0 0.00 0.00 0.00 57 998.4
20260505121315 48 286 5.0 7.0 0.00 0.00 0.00 58 998.6
20260505121032 48 292 5.0 8.0 0.00 0.00 0.00 60 998.6
20260505120315 48 300 5.0 8.0 0.00 0.00 0.00 57 998.2
20260505115816 48 297 6.0 9.0 0.00 0.00 0.00 58 998.4
20260505115315 48 295 6.0 9.0 0.00 0.00 0.00 59 998.2
20260505114815 48 297 6.0 8.0 0.00 0.00 0.00 61 998.4
20260505114041 48 302 7.0 11.0 0.00 0.00 0.00 61 997.7
20260505113314 48 302 6.0 11.0 0.00 0.00 0.00 61 997.4
20260505112815 48 302 5.0 9.0 0.00 0.00 0.00 63 997.1
20260505112537 48 275 3.0 7.0 0.00 0.00 0.00 62 997.8
20260505111814 48 305 1.0 5.0 0.00 0.00 0.00 61 997.1
20260505111541 48 328 1.0 3.0 0.00 0.00 0.00 60 995.9
20260505110814 48 31 1.0 2.0 0.00 0.00 0.00 61 996.4
20260505101728 49 53 2.0 7.0 0.00 0.00 0.00 60 996.5
20260505101222 49 330 1.0 6.0 0.00 0.00 0.00 59 996.3
20260505100717 49 333 1.0 7.0 0.00 0.00 0.00 60 996.4
20260505100210 49 58 1.0 7.0 0.00 0.00 0.00 60 996.2
20260505095707 49 334 1.0 4.0 0.00 0.00 0.00 58 995.9
20260505095207 49 337 1.0 5.0 0.00 0.00 0.00 56 995.9
20260505094707 49 347 1.0 5.0 0.00 0.00 0.00 57 995.9
20260505094205 49 82 1.0 8.0 0.00 0.00 0.00 57 995.8
20260505093204 49 250 1.0 6.0 0.00 0.00 0.00 57 995.9
20260505092924 49 342 1.0 7.0 0.00 0.00 0.00 57 995.9
20260505092203 50 96 2.0 8.0 0.00 0.00 0.00 57 996.0
20260505091703 50 300 3.0 9.0 0.00 0.00 0.00 56 996.0
20260505091203 50 337 3.0 9.0 0.00 0.00 0.00 56 996.0
20260505090929 50 23 3.0 10.0 0.00 0.00 0.00 57 996.1
20260505090203 50 6 2.0 10.0 0.00 0.00 0.00 58 995.6
20260505085706 50 19 1.0 7.0 0.00 0.00 0.00 60 995.6
20260505084704 51 84 3.0 7.0 0.00 0.00 0.00 60 995.5
20260505084205 51 56 3.0 9.0 0.00 0.00 0.00 59 995.4
20260505083658 51 308 2.0 9.0 0.00 0.00 0.00 61 995.4
20260505083152 51 42 1.0 6.0 0.00 0.00 0.00 58 995.1
20260505082646 51 305 2.0 7.0 0.00 0.00 0.00 60 994.8
20260505082146 52 302 3.0 8.0 0.00 0.00 0.00 58 994.8
20260505081907 52 68 3.0 9.0 0.00 0.00 0.00 58 994.7
20260505081145 52 335 4.0 9.0 0.00 0.00 0.00 58 994.5
20260505080645 52 309 5.0 12.0 0.00 0.00 0.00 60 994.1
20260505080144 52 311 4.0 12.0 0.00 0.00 0.00 59 994.2
20260505075645 52 331 3.0 8.0 0.00 0.00 0.00 57 994.0
20260505075145 53 300 2.0 8.0 0.00 0.00 0.00 57 993.8
20260505074645 53 13 3.0 7.0 0.00 0.00 0.00 55 993.7
20260505074143 53 20 3.0 8.0 0.00 0.00 0.00 55 993.7
20260505073644 53 11 3.0 10.0 0.00 0.00 0.00 55 993.6
20260505073409 53 25 2.0 10.0 0.00 0.00 0.00 55 993.4
20260505072637 54 66 2.0 10.0 0.00 0.00 0.00 56 993.2
20260505072137 54 16 3.0 13.0 0.00 0.00 0.00 57 993.3
20260505071857 55 33 4.0 13.0 0.00 0.00 0.00 59 993.3
20260505071138 55 309 3.0 9.0 0.00 0.00 0.00 57 993.4
20260505070137 55 45 3.0 7.0 0.00 0.00 0.00 59 993.1
20260505065636 55 335 4.0 7.0 0.00 0.00 0.00 59 993.1
20260505065400 55 309 5.0 7.0 0.00 0.00 0.00 54 993.1
20260505064637 56 306 5.0 7.0 0.00 0.00 0.00 53 993.0
20260505064355 56 306 5.0 7.0 0.00 0.00 0.00 52 992.8
20260505063637 56 309 5.0 7.0 0.00 0.00 0.00 54 992.9
20260505063358 57 307 5.0 7.0 0.00 0.00 0.00 53 992.7
20260505062636 57 297 5.0 7.0 0.00 0.00 0.00 49 992.8
20260505062136 57 301 6.0 8.0 0.00 0.00 0.00 52 992.7
20260505061637 58 306 7.0 10.0 0.00 0.00 0.00 51 992.8
20260505061137 58 311 6.0 10.0 0.00 0.00 0.00 48 992.7
20260505060636 58 308 6.0 10.0 0.00 0.00 0.00 52 992.7
20260505060137 58 306 6.0 8.0 0.00 0.00 0.00 52 992.4
20260505055637 58 310 6.0 8.0 0.00 0.00 0.00 53 992.4
20260505055356 58 322 7.0 10.0 0.00 0.00 0.00 52 992.3
20260505054637 59 307 8.0 10.0 0.00 0.00 0.00 49 992.4
20260505054137 59 314 9.0 12.0 0.00 0.00 0.00 49 992.4
20260505053636 59 317 10.0 12.0 0.00 0.00 0.00 48 992.3
20260505053138 59 329 10.0 12.0 0.00 0.00 0.00 46 992.5
20260505052631 59 309 9.0 13.0 0.00 0.00 0.00 46 992.4
20260505052131 59 305 8.0 12.0 0.00 0.00 0.00 47 992.3
20260505051631 59 301 7.0 11.0 0.00 0.00 0.00 49 992.2
20260505051129 59 297 7.0 10.0 0.00 0.00 0.00 47 992.1
20260505050627 60 297 8.0 10.0 0.00 0.00 0.00 48 991.9
20260505050125 60 300 8.0 11.0 0.00 0.00 0.00 46 991.8
20260505041606 61 298 9.0 11.0 0.00 0.00 0.00 44 991.5
20260505041107 61 282 8.0 13.0 0.00 0.00 0.00 44 991.4
20260505040607 62 308 8.0 13.0 0.00 0.00 0.00 45 991.3
20260505040107 62 296 8.0 12.0 0.00 0.00 0.00 45 991.3
20260505035607 62 296 7.0 12.0 0.00 0.00 0.00 47 991.3
20260505034825 63 313 10.0 14.0 0.00 0.00 0.00 47 991.0
20260505034107 63 304 11.0 16.0 0.00 0.00 0.00 48 990.9
20260505033607 63 308 11.0 16.0 0.00 0.00 0.00 46 990.9
20260505033107 64 304 10.0 15.0 0.00 0.00 0.00 45 990.9
20260505032600 64 296 8.0 11.0 0.00 0.00 0.00 45 990.8
20260505032059 65 293 7.0 9.0 0.00 0.00 0.00 47 990.6
20260505031559 65 300 7.0 11.0 0.00 0.00 0.00 46 990.5
20260505031318 65 302 8.0 13.0 0.00 0.00 0.00 46 990.4
20260505030559 66 297 9.0 15.0 0.00 0.00 0.00 45 990.7
20260505025557 66 307 12.0 18.0 0.00 0.00 0.00 45 990.8
20260505025058 67 295 14.0 21.0 0.00 0.00 0.00 44 990.7
20260505024557 67 304 14.0 21.0 0.00 0.00 0.00 45 990.5
20260505024056 68 313 12.0 18.0 0.00 0.00 0.00 45 990.1
20260505023558 68 300 11.0 18.0 0.00 0.00 0.00 42 989.9
20260505023322 69 315 12.0 18.0 0.00 0.00 0.00 47 990.0
20260505022551 69 310 11.0 18.0 0.00 0.00 0.00 43 989.5
20260505022051 69 311 11.0 18.0 0.00 0.00 0.00 44 989.4
20260505021550 70 307 12.0 18.0 0.00 0.00 0.00 41 989.6
20260505021050 70 310 14.0 21.0 0.00 0.00 0.00 45 989.5
20260505020550 70 305 13.0 21.0 0.00 0.00 0.00 43 989.6
20260505020051 70 294 10.0 19.0 0.00 0.00 0.00 47 989.3
20260505015552 70 294 10.0 16.0 0.00 0.00 0.00 53 989.0
20260505015051 70 307 11.0 17.0 0.00 0.00 0.00 53 988.8
20260505014552 70 269 11.0 17.0 0.00 0.00 0.00 53 988.6
20260505014051 70 265 11.0 19.0 0.00 0.00 0.00 53 988.5
20260505013551 70 249 13.0 19.0 0.00 0.00 0.00 52 988.1
20260505013052 71 252 13.0 18.0 0.00 0.00 0.00 54 988.0
20260505012811 71 251 13.0 19.0 0.00 0.00 0.00 52 987.9
20260505012051 71 235 13.0 20.0 0.00 0.00 0.00 50 987.9
20260505011552 71 228 12.0 20.0 0.00 0.00 0.00 49 987.9
20260505011050 72 222 12.0 17.0 0.00 0.00 0.00 49 987.6
20260505010551 72 226 11.0 17.0 0.00 0.00 0.00 49 987.6
20260505010050 72 242 10.0 14.0 0.00 0.00 0.00 48 987.3
20260505005549 72 242 10.0 13.0 0.00 0.00 0.00 48 987.1
20260505005048 72 238 10.0 16.0 0.00 0.00 0.00 48 986.9
20260505004547 72 258 9.0 16.0 0.00 0.00 0.00 49 986.7
20260505004046 72 240 8.0 12.0 0.00 0.00 0.00 48 986.5
20260505003548 72 266 9.0 13.0 0.00 0.00 0.00 47 986.4
20260505003047 73 252 10.0 15.0 0.00 0.00 0.00 47 986.5
20260505002547 73 247 10.0 16.0 0.00 0.00 0.00 48 986.5
20260505001812 74 243 8.0 12.0 0.00 0.00 0.00 48 986.4
20260505001044 74 201 7.0 12.0 0.00 0.00 0.00 47 986.2
20260505000543 74 229 7.0 12.0 0.00 0.00 0.00 47 985.8
20260505000305 74 227 7.0 11.0 0.00 0.00 0.00 46 985.9
20260504235543 74 225 8.0 12.0 0.00 0.00 0.00 45 985.9
20260504235041 74 229 8.0 12.0 0.00 0.00 0.00 45 985.9
20260504234540 74 217 9.0 12.0 0.00 0.00 0.00 46 985.9
20260504234039 74 240 9.0 12.0 0.00 0.00 0.00 47 986.2
20260504233803 74 250 8.0 11.0 0.00 0.00 0.00 46 986.3
20260504233039 73 248 9.0 13.0 0.00 0.00 0.00 46 986.4
20260504232538 73 248 11.0 16.0 0.00 0.00 0.00 47 986.4
20260504232041 74 249 12.0 18.0 0.00 0.00 0.00 46 986.5
20260504231536 73 245 13.0 18.0 0.00 0.00 0.00 48 986.7
20260504231034 73 264 15.0 25.0 0.00 0.00 0.00 47 986.9